Home > Weather > Sanandaj > Past weeks

Flag for Iran Weather for the Past 2 Weeks in Sanandaj, Iran

Now
25 °F

Passing clouds.


Feels Like: 15 °F
Forecast: 12 / 41 °F
Wind: 9 mph from Northeast

Location: Sanandaj Airport

Current Time: Feb 9, 2016 at 8:04:28 AM

Latest Report: Feb 9, 2016 at 7:00 AM


Visibility: N/A

Pressure: 30.24 "Hg (24.99 "Hg at 1502m altitude)

Humidity: 80%

Dew point: 19 °F

Location of SanandajLocation

Historic Weather in Sanandaj — Graph

°F

Sanandaj Temperature Yesterday

Maximum temperature yesterday: 37 °F (at 11:30 AM)
Minimum temperature yesterday: 30 °F (at 9:22 PM)
Average temperature yesterday: 33 °F

High & Low Weather Summary for the Past Weeks

 TemperatureHumidityPressure
High63 °F (Feb 5, 3:26 PM)100% (Feb 7, 7:23 PM)30.42 "Hg (Feb 7, 7:23 PM)
Low16 °F (Jan 29, 4:21 AM)10% (Feb 6, 12:28 PM)29.83 "Hg (Jan 25, 1:00 PM)
Average35 °F63%30.13 "Hg
* Reported Jan 25 6:30 AM — Feb 9 6:30 AM, Sanandaj, Weather by CustomWeather, © 2016

Note: Actual official high and low records may vary slightly from our data, if they occured in-between our weather recording intervals... More about our weather records

Advertising

Sanandaj Weather History for the Previous 24 Hours

 ConditionsComfort  
Time TempWeatherWind HumidityBarometerVisibility
6:30 AM
Tue, Feb 9
25 °FClear.7 mph74%30.24 "Hg10 mi
5:20 AM27 °FPassing clouds.7 mph74%30.21 "HgN/A
4:20 AM28 °FPassing clouds.7 mph74%30.21 "HgN/A
3:20 AM28 °FPassing clouds.7 mph74%30.21 "HgN/A
2:22 AM30 °FPassing clouds.9 mph75%30.21 "HgN/A
1:20 AM30 °FPassing clouds.9 mph75%30.21 "HgN/A
11:22 PM
Mon, Feb 8
32 °FPartly cloudy.9 mph69%30.18 "HgN/A
10:20 PM30 °FLight snow. Mostly cloudy.12 mph80%30.18 "Hg3 mi
9:22 PM30 °FLight snow. Mostly cloudy.12 mph86%30.15 "Hg2 mi
8:23 PM32 °FPassing clouds.12 mph75%30.12 "HgN/A
7:22 PM34 °FPartly cloudy.9 mph75%30.12 "HgN/A
6:22 PM32 °FBroken clouds.12 mph80%30.09 "HgN/A
5:22 PM32 °FBroken clouds.9 mph93%30.07 "Hg4 mi
4:21 PM34 °FLight snow. Fog.9 mph93%30.07 "Hg2 mi
3:23 PM34 °FSnow. Fog.9 mph93%30.04 "Hg2 mi
2:21 PM34 °FLight snow. Fog.5 mph93%30.04 "Hg2 mi
1:30 PM36 °FLight rain. Fog.2 mph87%30.04 "Hg2 mi
12:30 PM37 °FFog.2 mph87%30.04 "Hg3 mi
12:00 PM37 °FFog.No wind87%30.04 "Hg2 mi
11:30 AM37 °FFog.No wind93%30.01 "Hg2 mi
11:22 AM34 °FLight rain. Fog.2 mph100%30.01 "Hg2 mi
11:00 AM34 °FLight rain. Fog.5 mph100%30.04 "Hg2 mi
10:24 AM34 °FLight rain. Fog.2 mph100%30.01 "Hg2 mi
9:30 AM34 °FFog.5 mph100%30.01 "Hg2 mi
8:30 AM34 °FFog.2 mph100%29.98 "Hg2 mi
Weather by CustomWeather, © 2016

See weather overviewHow to use our weather pages